{"data":{"norad_id":45589,"intl_designator":"2020-025BL","name":"STARLINK-1364","alt_names":[],"object_type":"PAYLOAD","status":"ACTIVE","operator":null,"country":"US","launch_date":"2020-04-22","launch_site_code":"AFETR","launch_vehicle":null,"mission":null,"orbit_class":"UNKNOWN","rcs_meters":null,"size_class":null,"mass_kg":null,"dimensions":null,"purposes":["comms"],"wikipedia_slug":null,"has_3d_model":false,"image_url":null,"decayed_at":null,"tle_current":{"epoch":"2026-09-18T04:39:20.261664Z","epoch_age_seconds":221247,"freshness":"STALE","line1":"1 45589U 20025BL  26261.19398451  .00098196  00000+0  44393-3 0  9995","line2":"2 45589  53.0326 194.9503 0003202  90.4088 269.7301 15.83223849355881","mean_motion":15.83223849,"eccentricity":0.0003202,"inclination_deg":53.0326,"raan_deg":194.9503,"arg_perigee_deg":90.4088,"mean_anomaly_deg":269.7301,"bstar":0.00044393,"rev_number":35588,"period_min":90.953657684574,"perigee_km":319.18545131733,"apogee_km":323.47579038172,"semimajor_km":6699.4676208495,"source":"CELESTRAK","updated_at":"2026-09-20T09:00:38.449310Z"}}}